Roseau, MN

10:07 PM CST on February 12, 2016 (GMT -0600)
Roseau Municipal-Billberg

Weather History for KROX - June, 2013

Change the Weather History Date:

Wednesday, June 5, 2013

  Actual Average Record
Temperature  
Mean Temperature 60 °F -  
Max Temperature 68 °F 70 °F 92 °F (1961)
Min Temperature 51 °F 46 °F 30 °F (1967)
Degree Days  
Heating Degree Days 6    
Growing Degree Days 10 (Base 50)    
Moisture  
Dew Point 46 °F    
Average Humidity 63    
Maximum Humidity 82    
Minimum Humidity 43    
Precipitation  
Precipitation 0.00 in - - ()
Sea Level Pressure  
Sea Level Pressure 30.09 in    
Wind  
Wind Speed 9 mph (East)    
Max Wind Speed 17 mph    
Max Gust Speed 22 mph    
Visibility 10 miles    
Events Rain    
Averages and records for this station are not official NWS values.
T = Trace of Precipitation, MM = Missing Value Source: NWS Daily Summary

Daily Weather History Graph

Daily Weather History Graph

Search for Another Location

Airport or City:

Trip Planner

Search our weather history database for the weather conditions in past years. The results will help you decide how hot, cold, wet, or windy it might be!

Date:

Astronomy

Jun. 05, 2013 Rise Set
Actual Time 5:21 AM CDT 9:21 PM CDT
Civil Twilight 4:39 AM CDT 10:03 PM CDT
Nautical Twilight 3:41 AM CDT 11:01 PM CDT
Astronomical Twilight 2:01 AM CDT 12:44 AM CDT
Moon 3:39 AM CDT (6/5) 6:38 PM CDT (6/5)
Length of Visible Light 17h 23m
Length of Day
16h 00m
Waning Crescent, 8% of the Moon is Illuminated
Jun 5
Waning Crescent
Jun 8
New
Jun 16
First Quarter
Jun 23
Full
Jun 29
Last Quarter

Hourly Weather History & Observations

Time (CDT) Temp. Dew Point Humidity Pressure Visibility Wind Dir Wind Speed Gust Speed Precip Events Conditions
12:09 AM 53.6 °F 44.6 °F 72% 30.10 in 10.0 mi SE 10.4 mph - N/A   Mostly Cloudy
12:35 AM 55.4 °F 46.4 °F 72% 30.09 in 10.0 mi East 6.9 mph - N/A   Mostly Cloudy
12:54 AM 55.4 °F 46.4 °F 72% 30.09 in 10.0 mi ESE 6.9 mph - N/A   Overcast
1:14 AM 53.6 °F 46.4 °F 77% 30.09 in 10.0 mi ESE 8.1 mph - N/A   Overcast
1:34 AM 53.6 °F 46.4 °F 77% 30.09 in 10.0 mi East 6.9 mph - N/A   Overcast
1:54 AM 53.6 °F 46.4 °F 77% 30.08 in 10.0 mi ENE 6.9 mph - N/A   Mostly Cloudy
2:14 AM 51.8 °F 46.4 °F 82% 30.08 in 10.0 mi ENE 5.8 mph - N/A   Mostly Cloudy
2:34 AM 51.8 °F 46.4 °F 82% 30.08 in 10.0 mi ENE 5.8 mph - N/A   Overcast
2:54 AM 53.6 °F 46.4 °F 77% 30.08 in 10.0 mi NE 6.9 mph - N/A   Mostly Cloudy
3:14 AM 53.6 °F 46.4 °F 77% 30.08 in 10.0 mi East 5.8 mph - N/A   Mostly Cloudy
3:34 AM 53.6 °F 46.4 °F 77% 30.07 in 10.0 mi ENE 5.8 mph - N/A   Mostly Cloudy
3:55 AM 53.6 °F 46.4 °F 77% 30.08 in 10.0 mi East 8.1 mph - N/A   Mostly Cloudy
4:14 AM 53.6 °F 46.4 °F 77% 30.08 in 10.0 mi East 9.2 mph - N/A   Mostly Cloudy
4:34 AM 53.6 °F 46.4 °F 77% 30.08 in 10.0 mi East 9.2 mph - N/A Rain Light Rain
4:54 AM 53.6 °F 46.4 °F 77% 30.08 in 10.0 mi East 6.9 mph - N/A   Scattered Clouds
5:14 AM 53.6 °F 46.4 °F 77% 30.09 in 10.0 mi East 4.6 mph - N/A   Scattered Clouds
5:35 AM 51.8 °F 46.4 °F 82% 30.09 in 10.0 mi NE 4.6 mph - N/A Rain Light Rain
5:54 AM 51.8 °F 46.4 °F 82% 30.09 in 10.0 mi NE 4.6 mph - N/A   Clear
6:14 AM 51.8 °F 46.4 °F 82% 30.10 in 10.0 mi NE 4.6 mph - N/A   Scattered Clouds
6:35 AM 51.8 °F 46.4 °F 82% 30.10 in 10.0 mi NNE 5.8 mph - N/A   Scattered Clouds
6:54 AM 53.6 °F 46.4 °F 77% 30.10 in 10.0 mi NE 3.5 mph - N/A   Scattered Clouds
7:14 AM 53.6 °F 48.2 °F 82% 30.11 in 10.0 mi ENE 4.6 mph - N/A   Clear
7:35 AM 55.4 °F 46.4 °F 72% 30.10 in 10.0 mi East 6.9 mph - N/A   Clear
7:54 AM 55.4 °F 46.4 °F 72% 30.10 in 10.0 mi ENE 6.9 mph - N/A   Clear
8:14 AM 57.2 °F 44.6 °F 63% 30.10 in 10.0 mi ENE 8.1 mph - N/A   Clear
8:35 AM 57.2 °F 44.6 °F 63% 30.10 in 10.0 mi ENE 10.4 mph - N/A   Clear
8:54 AM 59.0 °F 44.6 °F 59% 30.11 in 10.0 mi East 10.4 mph - N/A   Clear
9:14 AM 59.0 °F 44.6 °F 59% 30.11 in 10.0 mi East 12.7 mph - N/A   Clear
9:35 AM 60.8 °F 44.6 °F 55% 30.11 in 10.0 mi ENE 8.1 mph - N/A   Clear
9:54 AM 60.8 °F 44.6 °F 55% 30.11 in 10.0 mi East 15.0 mph - N/A   Clear
10:14 AM 60.8 °F 42.8 °F 52% 30.10 in 10.0 mi East 15.0 mph 19.6 mph N/A   Clear
10:34 AM 62.6 °F 42.8 °F 48% 30.10 in 10.0 mi East 13.8 mph - N/A   Clear
10:54 AM 62.6 °F 44.6 °F 52% 30.10 in 10.0 mi ENE 16.1 mph - N/A   Clear
11:14 AM 62.6 °F 42.8 °F 48% 30.10 in 10.0 mi ENE 17.3 mph 21.9 mph N/A   Clear
11:34 AM 62.6 °F 42.8 °F 48% 30.10 in 10.0 mi ENE 13.8 mph 18.4 mph N/A   Clear
11:54 AM 62.6 °F 42.8 °F 48% 30.10 in 10.0 mi East 16.1 mph 20.7 mph N/A   Clear
12:14 PM 62.6 °F 44.6 °F 52% 30.10 in 10.0 mi ENE 15.0 mph 20.7 mph N/A   Clear
12:34 PM 64.4 °F 46.4 °F 52% 30.10 in 10.0 mi ENE 13.8 mph - N/A   Clear
12:54 PM 64.4 °F 46.4 °F 52% 30.10 in 10.0 mi East 11.5 mph - N/A   Clear
1:14 PM 64.4 °F 46.4 °F 52% 30.10 in 10.0 mi ENE 11.5 mph 18.4 mph N/A   Clear
1:34 PM 64.4 °F 46.4 °F 52% 30.09 in 10.0 mi ENE 9.2 mph - N/A   Clear
1:54 PM 66.2 °F 48.2 °F 52% 30.09 in 10.0 mi East 10.4 mph 18.4 mph N/A   Clear
2:14 PM 66.2 °F 48.2 °F 52% 30.09 in 10.0 mi East 10.4 mph 18.4 mph N/A   Clear
2:34 PM 66.2 °F 48.2 °F 52% 30.09 in 10.0 mi ENE 10.4 mph 18.4 mph N/A   Clear
2:54 PM 66.2 °F 46.4 °F 49% 30.08 in 10.0 mi ENE 11.5 mph 17.3 mph N/A   Clear
3:14 PM 66.2 °F 48.2 °F 52% 30.08 in 10.0 mi East 9.2 mph 17.3 mph N/A   Clear
3:34 PM 68.0 °F 46.4 °F 46% 30.08 in 10.0 mi ENE 15.0 mph 19.6 mph N/A   Clear
3:54 PM 68.0 °F 46.4 °F 46% 30.08 in 10.0 mi ENE 12.7 mph - N/A   Clear
4:14 PM 68.0 °F 48.2 °F 49% 30.07 in 10.0 mi East 13.8 mph - N/A   Clear
4:34 PM 68.0 °F 48.2 °F 49% 30.08 in 10.0 mi NE 12.7 mph 19.6 mph N/A   Clear
4:54 PM 68.0 °F 46.4 °F 46% 30.07 in 10.0 mi East 12.7 mph 16.1 mph N/A   Scattered Clouds
5:15 PM 68.0 °F 44.6 °F 43% 30.07 in 10.0 mi ENE 15.0 mph 18.4 mph N/A   Clear
5:34 PM 68.0 °F 44.6 °F 43% 30.07 in 10.0 mi ENE 13.8 mph 19.6 mph N/A   Clear
5:54 PM 68.0 °F 44.6 °F 43% 30.07 in 10.0 mi ENE 11.5 mph 20.7 mph N/A   Clear
6:14 PM 66.2 °F 42.8 °F 43% 30.07 in 10.0 mi ENE 9.2 mph - N/A   Clear
6:34 PM 68.0 °F 44.6 °F 43% 30.06 in 10.0 mi ENE 10.4 mph - N/A   Clear
6:54 PM 66.2 °F 44.6 °F 46% 30.06 in 10.0 mi East 9.2 mph - N/A   Clear
7:15 PM 66.2 °F 46.4 °F 49% 30.06 in 10.0 mi East 9.2 mph - N/A   Clear
7:34 PM 66.2 °F 46.4 °F 49% 30.07 in 10.0 mi SE 5.8 mph - N/A   Clear
7:54 PM 64.4 °F 46.4 °F 52% 30.07 in 10.0 mi ESE 10.4 mph 17.3 mph N/A   Clear
8:14 PM 62.6 °F 48.2 °F 59% 30.08 in 10.0 mi SE 8.1 mph - N/A   Clear
8:34 PM 62.6 °F 48.2 °F 59% 30.08 in 10.0 mi SSE 5.8 mph - N/A   Clear
8:55 PM 60.8 °F 48.2 °F 63% 30.08 in 10.0 mi SSE 5.8 mph - N/A   Clear
9:14 PM 59.0 °F 50.0 °F 72% 30.08 in 10.0 mi SSE 4.6 mph - N/A   Clear
9:34 PM 57.2 °F 48.2 °F 72% 30.08 in 10.0 mi SSE 4.6 mph - N/A   Clear
9:55 PM 55.4 °F 48.2 °F 77% 30.09 in 10.0 mi SE 5.8 mph - N/A   Clear
10:14 PM 55.4 °F 46.4 °F 72% 30.09 in 10.0 mi SSE 5.8 mph - N/A   Clear
10:34 PM 53.6 °F 46.4 °F 77% 30.10 in 10.0 mi SSE 5.8 mph - N/A   Clear
10:55 PM 55.4 °F 46.4 °F 72% 30.10 in 10.0 mi SSE 8.1 mph - N/A   Clear
11:14 PM 55.4 °F 46.4 °F 72% 30.11 in 10.0 mi SSE 4.6 mph - N/A   Clear
11:34 PM 53.6 °F 46.4 °F 77% 30.11 in 10.0 mi Calm Calm - N/A   Clear
11:55 PM 51.8 °F 44.6 °F 76% 30.11 in 10.0 mi SSE 3.5 mph - N/A   Clear